Time,TemperatureF,DewpointF,PressureIn,WindDirection,WindDirectionDegrees,WindSpeedMPH,WindSpeedGustMPH,Humidity,HourlyPrecipIn,Conditions,Clouds,dailyrainin,SoftwareType,DateUTC
2013-03-04 00:05:00,36.7,21.6,29.65,NW,306,3.1,6.3,54,0.00,,,0.00,VWS V12.08,2013-03-04 05:05:00,
2013-03-04 00:11:00,36.5,21.5,29.65,West,266,2.7,6.3,54,0.00,,,0.00,VWS V12.08,2013-03-04 05:11:00,
2013-03-04 00:16:00,36.5,21.5,29.65,WNW,299,3.6,6.3,54,0.00,,,0.00,VWS V12.08,2013-03-04 05:16:00,
2013-03-04 00:20:00,36.5,21.5,29.65,NW,322,2.7,6.3,54,0.00,,,0.00,VWS V12.08,2013-03-04 05:20:00,
2013-03-04 00:21:00,36.5,21.5,29.65,NW,322,2.7,6.3,54,0.00,,,0.00,VWS V12.08,2013-03-04 05:21:00,
2013-03-04 00:25:00,36.1,21.5,29.65,NW,309,3.6,6.3,55,0.00,,,0.00,VWS V12.08,2013-03-04 05:25:00,
2013-03-04 00:30:00,36.1,22.0,29.65,SSW,196,2.7,6.3,56,0.00,,,0.00,VWS V12.08,2013-03-04 05:30:00,
2013-03-04 00:40:00,36.1,22.0,29.65,NNW,340,2.7,6.3,56,0.00,,,0.00,VWS V12.08,2013-03-04 05:40:00,
2013-03-04 00:45:00,36.0,21.8,29.65,NNW,337,0.0,4.0,56,0.00,,,0.00,VWS V12.08,2013-03-04 05:45:00,
2013-03-04 00:50:00,36.0,21.8,29.65,NNW,336,2.7,4.0,56,0.00,,,0.00,VWS V12.08,2013-03-04 05:50:00,
2013-03-04 00:55:00,36.0,21.8,29.65,WNW,292,3.6,5.8,56,0.00,,,0.00,VWS V12.08,2013-03-04 05:55:00,
2013-03-04 01:00:00,36.0,21.8,29.65,NNW,333,3.1,5.8,56,0.00,,,0.00,VWS V12.08,2013-03-04 06:00:00,
2013-03-04 01:15:00,35.8,21.6,29.65,NW,321,3.1,4.0,56,0.00,,,0.00,VWS V12.08,2013-03-04 06:15:00,
2013-03-04 01:20:00,35.8,21.6,29.65,NNW,329,2.7,6.3,56,0.00,,,0.00,VWS V12.08,2013-03-04 06:20:00,
2013-03-04 01:30:00,35.8,21.6,29.65,WSW,257,5.8,6.3,56,0.00,,,0.00,VWS V12.08,2013-03-04 06:30:00,
2013-03-04 01:40:00,35.6,21.9,29.65,NNW,338,2.7,6.3,57,0.00,,,0.00,VWS V12.08,2013-03-04 06:40:00,
2013-03-04 01:45:00,35.6,21.9,29.65,WNW,283,2.2,4.9,57,0.00,,,0.00,VWS V12.08,2013-03-04 06:45:00,
2013-03-04 01:55:00,35.4,21.7,29.65,NW,325,0.0,4.9,57,0.00,,,0.00,VWS V12.08,2013-03-04 06:55:00,
2013-03-04 02:04:00,35.4,22.1,29.65,NW,324,2.7,4.9,58,0.00,,,0.00,VWS V12.08,2013-03-04 07:04:00,
2013-03-04 02:10:00,35.4,22.1,29.65,NNW,327,2.7,5.4,58,0.00,,,0.00,VWS V12.08,2013-03-04 07:10:00,
2013-03-04 02:16:00,35.2,22.0,29.65,South,176,3.1,5.4,58,0.00,,,0.00,VWS V12.08,2013-03-04 07:16:00,
2013-03-04 02:25:00,35.4,22.1,29.65,NW,312,2.2,4.9,58,0.00,,,0.00,VWS V12.08,2013-03-04 07:25:00,
2013-03-04 02:31:00,35.2,22.0,29.65,North,357,2.2,4.9,58,0.00,,,0.00,VWS V12.08,2013-03-04 07:31:00,
2013-03-04 02:40:00,35.2,22.0,29.65,NW,325,0.0,4.9,58,0.00,,,0.00,VWS V12.08,2013-03-04 07:40:00,
2013-03-04 02:46:00,35.2,22.4,29.65,NW,322,0.0,4.0,59,0.00,,,0.00,VWS V12.08,2013-03-04 07:46:00,
2013-03-04 02:55:00,35.2,22.4,29.65,NNW,338,2.2,4.0,59,0.00,,,0.00,VWS V12.08,2013-03-04 07:55:00,
2013-03-04 03:03:00,35.2,22.4,29.65,NNW,333,3.1,4.9,59,0.00,,,0.00,VWS V12.08,2013-03-04 08:03:00,
2013-03-04 03:10:00,35.2,22.4,29.65,NNW,340,2.2,5.8,59,0.00,,,0.00,VWS V12.08,2013-03-04 08:10:00,
2013-03-04 03:16:00,35.2,22.4,29.65,NNW,339,2.7,5.8,59,0.00,,,0.00,VWS V12.08,2013-03-04 08:16:00,
2013-03-04 03:25:00,35.2,22.8,29.65,West,281,0.0,4.0,60,0.00,,,0.00,VWS V12.08,2013-03-04 08:25:00,
2013-03-04 03:31:00,35.2,22.8,29.65,NNW,341,2.7,5.4,60,0.00,,,0.00,VWS V12.08,2013-03-04 08:31:00,
2013-03-04 03:40:00,35.2,22.8,29.65,NNW,343,2.7,5.4,60,0.00,,,0.00,VWS V12.08,2013-03-04 08:40:00,
2013-03-04 03:46:00,35.2,22.8,29.65,North,2,4.5,7.6,60,0.00,,,0.00,VWS V12.08,2013-03-04 08:46:00,
2013-03-04 03:55:00,35.2,22.8,29.65,NW,318,5.8,7.6,60,0.00,,,0.00,VWS V12.08,2013-03-04 08:55:00,
2013-03-04 04:04:00,35.2,22.8,29.65,NNW,343,2.7,7.6,60,0.00,,,0.00,VWS V12.08,2013-03-04 09:04:00,
2013-03-04 04:10:00,35.2,22.8,29.65,NE,46,3.6,6.7,60,0.00,,,0.00,VWS V12.08,2013-03-04 09:10:00,
2013-03-04 04:16:00,35.2,22.8,29.65,NW,324,3.1,6.7,60,0.00,,,0.00,VWS V12.08,2013-03-04 09:16:00,
2013-03-04 04:25:00,35.2,22.8,29.65,North,353,3.6,5.8,60,0.00,,,0.00,VWS V12.08,2013-03-04 09:25:00,
2013-03-04 04:31:00,35.2,22.4,29.65,WNW,289,3.1,7.6,59,0.00,,,0.00,VWS V12.08,2013-03-04 09:31:00,
2013-03-04 04:40:00,35.2,22.4,29.65,NNW,340,3.1,8.7,59,0.00,,,0.00,VWS V12.08,2013-03-04 09:40:00,
2013-03-04 04:46:00,35.2,22.4,29.65,NNW,346,3.1,5.4,59,0.00,,,0.00,VWS V12.08,2013-03-04 09:46:00,
2013-03-04 04:55:00,35.2,22.4,29.65,NNW,330,3.6,5.4,59,0.00,,,0.00,VWS V12.08,2013-03-04 09:55:00,
2013-03-04 05:04:00,35.2,22.4,29.65,NW,306,3.1,5.4,59,0.00,,,0.00,VWS V12.08,2013-03-04 10:04:00,
2013-03-04 05:10:00,35.1,21.8,29.65,NNE,22,7.6,7.6,58,0.00,,,0.00,VWS V12.08,2013-03-04 10:10:00,
2013-03-04 05:16:00,35.1,21.8,29.65,NW,317,0.0,7.6,58,0.00,,,0.00,VWS V12.08,2013-03-04 10:16:00,
2013-03-04 05:25:00,34.9,21.2,29.65,North,353,0.0,0.0,57,0.00,,,0.00,VWS V12.08,2013-03-04 10:25:00,
2013-03-04 05:31:00,34.9,21.2,29.65,NNW,327,0.0,0.0,57,0.00,,,0.00,VWS V12.08,2013-03-04 10:31:00,
2013-03-04 05:41:00,34.7,20.6,29.65,SSW,206,0.0,0.0,56,0.00,,,0.00,VWS V12.08,2013-03-04 10:41:00,
2013-03-04 05:46:00,34.7,20.6,29.65,NW,307,0.0,0.0,56,0.00,,,0.00,VWS V12.08,2013-03-04 10:46:00,
2013-03-04 05:55:00,34.5,20.0,29.68,NNW,345,0.0,0.0,55,0.00,,,0.00,VWS V12.08,2013-03-04 10:55:00,
2013-03-04 06:04:00,34.3,19.9,29.68,WSW,250,0.0,0.0,55,0.00,,,0.00,VWS V12.08,2013-03-04 11:04:00,
2013-03-04 06:11:00,34.3,19.4,29.68,North,353,0.0,0.0,54,0.00,,,0.00,VWS V12.08,2013-03-04 11:11:00,
2013-03-04 06:16:00,34.3,19.4,29.68,North,353,0.0,0.0,54,0.00,,,0.00,VWS V12.08,2013-03-04 11:16:00,
2013-03-04 06:26:00,34.2,18.8,29.68,NNW,330,0.0,0.0,53,0.00,,,0.00,VWS V12.08,2013-03-04 11:26:00,
2013-03-04 06:31:00,34.2,18.8,29.68,NW,325,0.0,0.0,53,0.00,,,0.00,VWS V12.08,2013-03-04 11:31:00,
2013-03-04 06:41:00,34.3,19.0,29.68,NNW,338,0.0,0.0,53,0.00,,,0.00,VWS V12.08,2013-03-04 11:41:00,
2013-03-04 06:46:00,34.3,19.0,29.68,North,1,0.0,0.0,53,0.00,,,0.00,VWS V12.08,2013-03-04 11:46:00,
2013-03-04 06:56:00,34.2,18.4,29.68,West,261,0.0,0.0,52,0.00,,,0.00,VWS V12.08,2013-03-04 11:56:00,
2013-03-04 07:04:00,34.0,17.8,29.68,North,0,0.0,0.0,51,0.00,,,0.00,VWS V12.08,2013-03-04 12:04:00,
2013-03-04 07:11:00,34.0,18.2,29.68,NNW,339,0.0,0.0,52,0.00,,,0.00,VWS V12.08,2013-03-04 12:11:00,
2013-03-04 07:16:00,34.0,18.2,29.68,NNW,340,0.0,0.0,52,0.00,,,0.00,VWS V12.08,2013-03-04 12:16:00,
2013-03-04 07:26:00,34.0,18.2,29.68,NW,317,0.0,0.0,52,0.00,,,0.00,VWS V12.08,2013-03-04 12:26:00,
2013-03-04 07:31:00,34.0,18.2,29.68,West,259,0.0,0.0,52,0.00,,,0.00,VWS V12.08,2013-03-04 12:31:00,
2013-03-04 07:41:00,33.8,17.6,29.68,NW,308,0.0,0.0,51,0.00,,,0.00,VWS V12.08,2013-03-04 12:41:00,
2013-03-04 07:46:00,34.0,17.8,29.68,NW,315,0.0,0.0,51,0.00,,,0.00,VWS V12.08,2013-03-04 12:46:00,
2013-03-04 07:56:00,34.0,17.8,29.68,NNW,327,5.8,8.1,51,0.00,,,0.00,VWS V12.08,2013-03-04 12:56:00,
2013-03-04 08:04:00,34.2,17.9,29.68,North,353,2.7,8.1,51,0.00,,,0.00,VWS V12.08,2013-03-04 13:04:00,
2013-03-04 08:11:00,34.3,18.1,29.68,North,350,2.7,10.5,51,0.00,,,0.00,VWS V12.08,2013-03-04 13:11:00,
2013-03-04 08:16:00,34.5,17.3,29.68,WNW,293,6.3,10.5,49,0.00,,,0.00,VWS V12.08,2013-03-04 13:16:00,
2013-03-04 08:25:00,34.7,17.5,29.68,North,0,3.6,6.3,49,0.00,,,0.00,VWS V12.08,2013-03-04 13:25:00,
2013-03-04 08:30:00,34.9,17.7,29.68,North,353,4.0,8.3,49,0.00,,,0.00,VWS V12.08,2013-03-04 13:30:00,
2013-03-04 08:40:00,34.9,16.7,29.68,WSW,253,5.8,12.8,47,0.00,,,0.00,VWS V12.08,2013-03-04 13:40:00,
2013-03-04 08:45:00,35.1,16.4,29.68,WSW,239,4.0,8.7,46,0.00,,,0.00,VWS V12.08,2013-03-04 13:45:00,
2013-03-04 08:55:00,35.2,17.0,29.68,North,353,8.1,8.7,47,0.00,,,0.00,VWS V12.08,2013-03-04 13:55:00,
2013-03-04 09:04:00,35.4,16.7,29.68,NNW,341,2.7,10.5,46,0.00,,,0.00,VWS V12.08,2013-03-04 14:04:00,
2013-03-04 09:10:00,35.4,17.2,29.68,NW,322,3.6,8.3,47,0.00,,,0.00,VWS V12.08,2013-03-04 14:10:00,
2013-03-04 09:16:00,35.6,16.9,29.68,NW,323,5.8,9.6,46,0.00,,,0.00,VWS V12.08,2013-03-04 14:16:00,
2013-03-04 09:21:00,35.8,16.5,29.65,NNW,343,5.8,5.8,45,0.00,,,0.00,VWS V12.08,2013-03-04 14:21:00,
2013-03-04 09:31:00,36.3,16.5,29.65,NW,313,6.3,7.6,44,0.00,,,0.00,VWS V12.08,2013-03-04 14:31:00,
2013-03-04 09:40:00,36.9,17.0,29.65,NNW,330,8.1,9.6,44,0.00,,,0.00,VWS V12.08,2013-03-04 14:40:00,
2013-03-04 09:46:00,37.0,16.1,29.65,North,1,6.3,12.3,42,0.00,,,0.00,VWS V12.08,2013-03-04 14:46:00,
2013-03-04 09:55:00,37.8,17.3,29.65,NNW,348,5.8,12.3,43,0.00,,,0.00,VWS V12.08,2013-03-04 14:55:00,
2013-03-04 10:04:00,37.9,16.9,29.65,WNW,297,7.6,12.3,42,0.00,,,0.00,VWS V12.08,2013-03-04 15:04:00,
2013-03-04 10:10:00,38.8,17.7,29.65,NNW,339,5.8,8.7,42,0.00,,,0.00,VWS V12.08,2013-03-04 15:10:00,
2013-03-04 10:16:00,39.4,17.1,29.65,NNE,21,4.9,9.6,40,0.00,,,0.00,VWS V12.08,2013-03-04 15:16:00,
2013-03-04 10:25:00,39.6,17.2,29.65,NNW,346,0.0,10.1,40,0.00,,,0.00,VWS V12.08,2013-03-04 15:25:00,
2013-03-04 10:31:00,40.1,17.1,29.65,NW,326,6.3,10.1,39,0.00,,,0.00,VWS V12.08,2013-03-04 15:31:00,
2013-03-04 10:40:00,39.7,16.2,29.65,NW,318,5.8,10.1,38,0.00,,,0.00,VWS V12.08,2013-03-04 15:40:00,
2013-03-04 10:46:00,39.9,17.0,29.65,NNW,337,3.1,8.7,39,0.00,,,0.00,VWS V12.08,2013-03-04 15:46:00,
2013-03-04 10:55:00,39.6,13.5,29.65,SW,216,8.3,9.6,34,0.00,,,0.00,VWS V12.08,2013-03-04 15:55:00,
2013-03-04 11:04:00,38.8,14.2,29.65,NNW,332,5.4,9.6,36,0.00,,,0.00,VWS V12.08,2013-03-04 16:04:00,
2013-03-04 11:11:00,39.4,15.3,29.65,NNW,338,2.7,11.0,37,0.00,,,0.00,VWS V12.08,2013-03-04 16:11:00,
2013-03-04 11:16:00,40.3,17.3,29.65,North,1,2.2,11.0,39,0.00,,,0.00,VWS V12.08,2013-03-04 16:16:00,
2013-03-04 11:25:00,40.5,15.6,29.65,WSW,252,5.4,6.3,36,0.00,,,0.00,VWS V12.08,2013-03-04 16:25:00,
2013-03-04 11:31:00,40.3,13.5,29.65,North,353,5.4,8.7,33,0.00,,,0.00,VWS V12.08,2013-03-04 16:31:00,
2013-03-04 11:40:00,40.3,14.2,29.65,WNW,302,3.1,8.7,34,0.00,,,0.00,VWS V12.08,2013-03-04 16:40:00,
2013-03-04 11:46:00,40.5,15.6,29.65,NNW,339,3.6,8.7,36,0.00,,,0.00,VWS V12.08,2013-03-04 16:46:00,
2013-03-04 11:55:00,41.7,16.8,29.65,NW,304,4.9,8.7,36,0.00,,,0.00,VWS V12.08,2013-03-04 16:55:00,
2013-03-04 12:04:00,41.7,14.8,29.65,North,353,9.2,11.0,33,0.00,,,0.00,VWS V12.08,2013-03-04 17:04:00,
2013-03-04 12:10:00,42.3,15.9,29.65,NNW,343,5.8,9.2,34,0.00,,,0.00,VWS V12.08,2013-03-04 17:10:00,
2013-03-04 12:16:00,42.6,16.2,29.65,NE,39,5.4,9.2,34,0.00,,,0.00,VWS V12.08,2013-03-04 17:16:00,
2013-03-04 12:25:00,43.0,13.7,29.65,WNW,295,5.8,9.6,30,0.00,,,0.00,VWS V12.08,2013-03-04 17:25:00,
2013-03-04 12:31:00,42.6,14.8,29.65,NNW,337,6.3,9.6,32,0.00,,,0.00,VWS V12.08,2013-03-04 17:31:00,
2013-03-04 12:41:00,42.4,14.0,29.65,NW,317,5.4,9.6,31,0.00,,,0.00,VWS V12.08,2013-03-04 17:41:00,
2013-03-04 12:46:00,42.3,14.5,29.65,NNW,338,8.1,8.1,32,0.00,,,0.00,VWS V12.08,2013-03-04 17:46:00,
2013-03-04 12:55:00,42.3,14.5,29.62,East,79,4.9,8.3,32,0.00,,,0.00,VWS V12.08,2013-03-04 17:55:00,
2013-03-04 13:04:00,42.4,14.7,29.62,WSW,253,3.1,8.3,32,0.00,,,0.00,VWS V12.08,2013-03-04 18:04:00,
2013-03-04 13:11:00,42.3,14.5,29.62,NE,48,5.4,5.8,32,0.00,,,0.00,VWS V12.08,2013-03-04 18:11:00,
2013-03-04 13:16:00,42.4,15.4,29.62,NNE,27,6.3,6.3,33,0.00,,,0.00,VWS V12.08,2013-03-04 18:16:00,
2013-03-04 13:26:00,42.8,15.7,29.62,North,7,3.1,4.9,33,0.00,,,0.00,VWS V12.08,2013-03-04 18:26:00,
2013-03-04 13:31:00,42.8,15.7,29.62,WNW,293,3.6,8.1,33,0.00,,,0.00,VWS V12.08,2013-03-04 18:31:00,
2013-03-04 13:36:00,43.0,15.9,29.62,WNW,288,4.5,8.1,33,0.00,,,0.00,VWS V12.08,2013-03-04 18:36:00,
2013-03-04 13:41:00,43.0,15.9,29.62,North,9,3.1,8.1,33,0.00,,,0.00,VWS V12.08,2013-03-04 18:41:00,
2013-03-04 13:46:00,42.8,15.7,29.62,NW,322,5.4,6.3,33,0.00,,,0.00,VWS V12.08,2013-03-04 18:46:00,
2013-03-04 13:56:00,42.1,14.4,29.62,NE,50,3.1,6.3,32,0.00,,,0.00,VWS V12.08,2013-03-04 18:56:00,
2013-03-04 14:04:00,41.9,14.9,29.62,NNW,333,5.4,6.3,33,0.00,,,0.00,VWS V12.08,2013-03-04 19:04:00,
2013-03-04 14:11:00,41.7,14.8,29.62,NW,306,3.6,8.3,33,0.00,,,0.00,VWS V12.08,2013-03-04 19:11:00,
2013-03-04 14:16:00,41.9,14.9,29.62,NNW,336,4.9,8.3,33,0.00,,,0.00,VWS V12.08,2013-03-04 19:16:00,
2013-03-04 14:21:00,42.1,14.4,29.62,North,0,4.0,8.3,32,0.00,,,0.00,VWS V12.08,2013-03-04 19:21:00,
2013-03-04 14:31:00,42.1,14.4,29.62,North,353,5.8,8.1,32,0.00,,,0.00,VWS V12.08,2013-03-04 19:31:00,
2013-03-04 14:41:00,42.1,15.1,29.62,NNE,30,5.4,8.3,33,0.00,,,0.00,VWS V12.08,2013-03-04 19:41:00,
2013-03-04 14:46:00,42.1,15.1,29.62,North,353,3.6,5.8,33,0.00,,,0.00,VWS V12.08,2013-03-04 19:46:00,
2013-03-04 14:56:00,42.1,15.1,29.62,North,0,4.9,8.1,33,0.00,,,0.00,VWS V12.08,2013-03-04 19:56:00,
2013-03-04 15:05:00,41.9,14.9,29.62,North,350,3.6,8.1,33,0.00,,,0.00,VWS V12.08,2013-03-04 20:05:00,
2013-03-04 15:11:00,41.5,14.6,29.62,SW,223,4.0,5.8,33,0.00,,,0.00,VWS V12.08,2013-03-04 20:11:00,
2013-03-04 15:16:00,41.4,14.4,29.62,NNW,344,2.7,5.8,33,0.00,,,0.00,VWS V12.08,2013-03-04 20:16:00,
2013-03-04 15:26:00,41.0,14.1,29.62,NNW,338,4.9,5.8,33,0.00,,,0.00,VWS V12.08,2013-03-04 20:26:00,
2013-03-04 15:35:00,40.6,14.5,29.62,WNW,297,5.4,6.3,34,0.00,,,0.00,VWS V12.08,2013-03-04 20:35:00,
2013-03-04 15:40:00,40.5,14.3,29.65,NW,316,3.6,6.3,34,0.00,,,0.00,VWS V12.08,2013-03-04 20:40:00,
2013-03-04 15:45:00,40.3,14.2,29.65,North,350,7.6,8.1,34,0.00,,,0.00,VWS V12.08,2013-03-04 20:45:00,
2013-03-04 15:55:00,39.9,13.8,29.65,NNW,346,4.9,10.1,34,0.00,,,0.00,VWS V12.08,2013-03-04 20:55:00,
2013-03-04 16:03:00,39.6,13.5,29.65,NNW,330,2.7,10.1,34,0.00,,,0.00,VWS V12.08,2013-03-04 21:03:00,
2013-03-04 16:10:00,39.0,13.7,29.65,WSW,253,3.6,7.2,35,0.00,,,0.00,VWS V12.08,2013-03-04 21:10:00,
2013-03-04 16:16:00,38.8,14.2,29.65,NW,324,5.8,7.2,36,0.00,,,0.00,VWS V12.08,2013-03-04 21:16:00,
2013-03-04 16:25:00,38.7,14.0,29.65,ENE,59,5.4,7.2,36,0.00,,,0.00,VWS V12.08,2013-03-04 21:25:00,
2013-03-04 16:31:00,38.7,14.0,29.65,NNW,334,2.7,7.2,36,0.00,,,0.00,VWS V12.08,2013-03-04 21:31:00,
2013-03-04 16:40:00,38.8,14.2,29.65,NNW,344,3.6,7.2,36,0.00,,,0.00,VWS V12.08,2013-03-04 21:40:00,
2013-03-04 16:46:00,38.8,14.2,29.65,North,353,2.2,5.4,36,0.00,,,0.00,VWS V12.08,2013-03-04 21:46:00,
2013-03-04 16:55:00,39.0,14.3,29.65,West,271,5.4,6.3,36,0.00,,,0.00,VWS V12.08,2013-03-04 21:55:00,
2013-03-04 17:04:00,39.0,14.3,29.65,West,271,10.1,10.5,36,0.00,,,0.00,VWS V12.08,2013-03-04 22:04:00,
2013-03-04 17:10:00,39.0,15.0,29.65,NNW,346,3.1,10.1,37,0.00,,,0.00,VWS V12.08,2013-03-04 22:10:00,
2013-03-04 17:16:00,38.8,14.8,29.65,NE,50,3.6,10.1,37,0.00,,,0.00,VWS V12.08,2013-03-04 22:16:00,
2013-03-04 17:25:00,38.8,15.4,29.65,North,0,2.7,6.7,38,0.00,,,0.00,VWS V12.08,2013-03-04 22:25:00,
2013-03-04 17:31:00,38.8,16.0,29.65,North,353,4.9,8.7,39,0.00,,,0.00,VWS V12.08,2013-03-04 22:31:00,
2013-03-04 17:40:00,38.7,15.9,29.65,NNW,343,4.0,9.2,39,0.00,,,0.00,VWS V12.08,2013-03-04 22:40:00,
2013-03-04 17:48:00,38.5,15.7,29.65,North,353,4.0,6.7,39,0.00,,,0.00,VWS V12.08,2013-03-04 22:48:00,
2013-03-04 17:55:00,38.3,16.1,29.68,NNW,339,3.6,8.3,40,0.00,,,0.00,VWS V12.08,2013-03-04 22:55:00,
2013-03-04 18:03:00,38.1,15.9,29.68,NNE,21,3.1,8.3,40,0.00,,,0.00,VWS V12.08,2013-03-04 23:03:00,
2013-03-04 18:10:00,37.8,16.2,29.68,WSW,245,3.1,10.5,41,0.00,,,0.00,VWS V12.08,2013-03-04 23:10:00,
2013-03-04 18:16:00,37.4,15.9,29.68,NNE,25,4.0,10.5,41,0.00,,,0.00,VWS V12.08,2013-03-04 23:16:00,
2013-03-04 18:25:00,37.0,16.1,29.68,NE,35,3.1,8.7,42,0.00,,,0.00,VWS V12.08,2013-03-04 23:25:00,
2013-03-04 18:31:00,36.9,16.5,29.68,North,0,5.8,8.7,43,0.00,,,0.00,VWS V12.08,2013-03-04 23:31:00,
2013-03-04 18:40:00,36.5,16.7,29.71,WNW,284,3.6,8.7,44,0.00,,,0.00,VWS V12.08,2013-03-04 23:40:00,
2013-03-04 18:46:00,36.3,16.5,29.71,NNW,333,8.7,8.7,44,0.00,,,0.00,VWS V12.08,2013-03-04 23:46:00,
2013-03-04 18:55:00,36.1,17.9,29.71,NNW,333,6.3,11.9,47,0.00,,,0.00,VWS V12.08,2013-03-04 23:55:00,
2013-03-04 19:04:00,36.1,18.4,29.71,NNW,337,7.6,11.9,48,0.00,,,0.00,VWS V12.08,2013-03-05 00:04:00,
2013-03-04 19:10:00,36.0,18.2,29.71,NNW,329,7.6,10.5,48,0.00,,,0.00,VWS V12.08,2013-03-05 00:10:00,
2013-03-04 19:16:00,35.8,18.5,29.71,NNW,333,3.1,10.5,49,0.00,,,0.00,VWS V12.08,2013-03-05 00:16:00,
2013-03-04 19:25:00,35.8,18.5,29.71,NNW,330,5.4,10.5,49,0.00,,,0.00,VWS V12.08,2013-03-05 00:25:00,
2013-03-04 19:31:00,35.6,19.3,29.71,NNW,337,4.9,10.5,51,0.00,,,0.00,VWS V12.08,2013-03-05 00:31:00,
2013-03-04 19:40:00,35.4,19.1,29.71,SW,232,5.4,10.5,51,0.00,,,0.00,VWS V12.08,2013-03-05 00:40:00,
2013-03-04 19:46:00,35.4,20.0,29.71,NW,326,5.4,10.1,53,0.00,,,0.00,VWS V12.08,2013-03-05 00:46:00,
2013-03-04 19:55:00,35.2,19.4,29.71,WNW,303,2.7,10.5,52,0.00,,,0.00,VWS V12.08,2013-03-05 00:55:00,
2013-03-04 20:04:00,35.2,20.3,29.71,West,281,6.3,10.5,54,0.00,,,0.00,VWS V12.08,2013-03-05 01:04:00,
2013-03-04 20:11:00,35.1,20.1,29.71,WNW,298,5.4,9.6,54,0.00,,,0.00,VWS V12.08,2013-03-05 01:11:00,
2013-03-04 20:16:00,35.1,20.1,29.71,North,357,5.4,9.6,54,0.00,,,0.00,VWS V12.08,2013-03-05 01:16:00,
2013-03-04 20:26:00,35.1,20.5,29.71,West,280,3.6,6.3,55,0.00,,,0.00,VWS V12.08,2013-03-05 01:26:00,
2013-03-04 20:31:00,35.1,20.5,29.71,NNW,339,3.1,6.3,55,0.00,,,0.00,VWS V12.08,2013-03-05 01:31:00,
2013-03-04 20:41:00,35.1,21.0,29.74,NNW,331,6.3,7.6,56,0.00,,,0.00,VWS V12.08,2013-03-05 01:41:00,
2013-03-04 20:46:00,34.9,20.8,29.74,West,274,5.4,12.3,56,0.00,,,0.00,VWS V12.08,2013-03-05 01:46:00,
2013-03-04 20:56:00,34.9,20.8,29.74,WNW,303,5.4,12.3,56,0.00,,,0.00,VWS V12.08,2013-03-05 01:56:00,
2013-03-04 21:04:00,34.9,20.8,29.74,West,273,5.4,12.3,56,0.00,,,0.00,VWS V12.08,2013-03-05 02:04:00,
2013-03-04 21:11:00,34.9,21.2,29.74,NW,325,4.0,8.7,57,0.00,,,0.00,VWS V12.08,2013-03-05 02:11:00,
2013-03-04 21:16:00,35.1,21.4,29.74,SSW,213,4.0,8.7,57,0.00,,,0.00,VWS V12.08,2013-03-05 02:16:00,
2013-03-04 21:26:00,35.1,21.4,29.74,NNW,346,5.8,7.6,57,0.00,,,0.00,VWS V12.08,2013-03-05 02:26:00,
2013-03-04 21:31:00,35.2,21.1,29.74,NNW,328,3.6,8.3,56,0.00,,,0.00,VWS V12.08,2013-03-05 02:31:00,
2013-03-04 21:41:00,35.4,21.3,29.74,NW,312,6.3,9.6,56,0.00,,,0.00,VWS V12.08,2013-03-05 02:41:00,
2013-03-04 21:46:00,35.4,21.3,29.74,East,79,3.6,7.6,56,0.00,,,0.00,VWS V12.08,2013-03-05 02:46:00,
2013-03-04 21:56:00,35.6,21.0,29.74,WSW,255,5.8,8.7,55,0.00,,,0.00,VWS V12.08,2013-03-05 02:56:00,
2013-03-04 22:04:00,35.6,21.0,29.74,WNW,289,4.0,11.9,55,0.00,,,0.00,VWS V12.08,2013-03-05 03:04:00,
2013-03-04 22:11:00,35.4,20.4,29.74,NNW,344,4.0,8.3,54,0.00,,,0.00,VWS V12.08,2013-03-05 03:11:00,
2013-03-04 22:16:00,35.4,20.4,29.74,NNW,340,8.1,8.3,54,0.00,,,0.00,VWS V12.08,2013-03-05 03:16:00,
2013-03-04 22:26:00,35.4,20.4,29.74,North,353,2.7,7.2,54,0.00,,,0.00,VWS V12.08,2013-03-05 03:26:00,
2013-03-04 22:35:00,35.2,19.8,29.74,NNW,340,2.7,7.6,53,0.00,,,0.00,VWS V12.08,2013-03-05 03:35:00,
2013-03-04 22:40:00,35.2,20.3,29.74,North,11,5.4,7.6,54,0.00,,,0.00,VWS V12.08,2013-03-05 03:40:00,
2013-03-04 22:45:00,35.1,20.1,29.74,NNW,343,2.2,6.3,54,0.00,,,0.00,VWS V12.08,2013-03-05 03:45:00,
2013-03-04 22:55:00,35.1,20.1,29.74,NW,311,6.3,8.3,54,0.00,,,0.00,VWS V12.08,2013-03-05 03:55:00,
2013-03-04 23:04:00,35.1,20.1,29.74,NNW,328,3.1,8.3,54,0.00,,,0.00,VWS V12.08,2013-03-05 04:04:00,
2013-03-04 23:10:00,35.2,20.3,29.74,North,2,5.4,8.1,54,0.00,,,0.00,VWS V12.08,2013-03-05 04:10:00,
2013-03-04 23:16:00,35.4,20.4,29.74,NNW,344,5.8,8.1,54,0.00,,,0.00,VWS V12.08,2013-03-05 04:16:00,
2013-03-04 23:25:00,35.4,20.0,29.74,NNW,344,5.4,7.6,53,0.00,,,0.00,VWS V12.08,2013-03-05 04:25:00,
2013-03-04 23:31:00,35.4,20.0,29.74,NNW,337,5.4,7.6,53,0.00,,,0.00,VWS V12.08,2013-03-05 04:31:00,
2013-03-04 23:40:00,35.6,19.7,29.74,NE,39,6.3,7.6,52,0.00,,,0.00,VWS V12.08,2013-03-05 04:40:00,
2013-03-04 23:46:00,35.6,19.7,29.74,WNW,282,5.4,9.6,52,0.00,,,0.00,VWS V12.08,2013-03-05 04:46:00,
2013-03-04 23:55:00,35.6,19.3,29.74,NNW,345,3.6,9.6,51,0.00,,,0.00,VWS V12.08,2013-03-05 04:55:00,